This is the latest recevied weather packets stored in our database for station/object K0FJ-1. If no packets are shown the sender has not sent any weather packets the latest 10 day(s).
| Time | Temp. | Humidity | Pressure | Rain* | Wind** | Luminosity | Snow |
|---|---|---|---|---|---|---|---|
| 1788385503 | 36.67° C | 27% | 1011.5 hPa | 0 mm | - | - | - |
| 1788385203 | 36.67° C | 27% | 1011.5 hPa | 0 mm | - | - | - |
| 1788384903 | 37.22° C | 28% | 1011.7 hPa | 0 mm | - | - | - |
| 1788384603 | 36.67° C | 26% | 1011.7 hPa | 0 mm | - | - | - |
| 1788384303 | 36.67° C | 28% | 1011.7 hPa | 0 mm | - | - | - |
| 1788384003 | 36.67° C | 27% | 1011.9 hPa | 0 mm | - | - | - |
| 1788383703 | 36.67° C | 28% | 1012 hPa | 0 mm | - | - | - |
| 1788383403 | 36.11° C | 27% | 1012 hPa | 0 mm | - | - | - |
| 1788383103 | 36.67° C | 27% | 1012.1 hPa | 0 mm | - | - | - |
| 1788382803 | 36.11° C | 27% | 1012.2 hPa | 0 mm | - | - | - |
| 1788382503 | 36.11° C | 26% | 1012.3 hPa | 0 mm | - | - | - |
| 1788382203 | 36.11° C | 26% | 1012.4 hPa | 0 mm | - | - | - |
| 1788381903 | 36.11° C | 26% | 1012.3 hPa | 0 mm | - | - | - |
| 1788381603 | 36.11° C | 24% | 1012.4 hPa | 0 mm | - | - | - |
| 1788381303 | 36.11° C | 27% | 1012.6 hPa | 0 mm | - | - | - |
| 1788381003 | 36.11° C | 30% | 1012.6 hPa | 0 mm | - | - | - |
| 1788380703 | 36.11° C | 28% | 1012.7 hPa | 0 mm | - | - | - |
| 1788380403 | 35.56° C | 29% | 1012.7 hPa | 0 mm | - | - | - |
| 1788380103 | 35.56° C | 31% | 1012.7 hPa | 0 mm | - | - | - |
| 1788379803 | 35.56° C | 31% | 1012.7 hPa | 0 mm | - | - | - |
| 1788379503 | 35.56° C | 31% | 1012.7 hPa | 0 mm | - | - | - |
| 1788379219 | 35.56° C | 34% | 1012.9 hPa | 0 mm | - | - | - |
| 1788378903 | 35.56° C | 36% | 1012.9 hPa | 0 mm | - | - | - |
| 1788378603 | 35.56° C | 35% | 1013 hPa | 0 mm | - | - | - |
| 1788378303 | 35.56° C | 35% | 1013.1 hPa | 0 mm | - | - | - |
* Rain latest hour (hover to see other rain measurements)
** Current wind speed in m/s (hover to see current wind gust speed)